CCA917 RJOO-RJTT

Flight info

Callsign CCA917
Flight time N/A
Altitude 27000
Route ASUKA SHTLE Y71 XAC
Aircraft L101/H-SDFGHIRWXY/S

Departure

Time 2026-05-07 10:31
Airport Osaka Itami International Airport (RJOO)

Arrival

Time N/A
Airport Tokyo Haneda International Airport (RJTT)
Time Latitude Longitude Altitude Speed Heading
2026-05-07 10:09 34.78873 135.44229 55 ft 0 kts 31°
2026-05-07 10:21 34.78857 135.44218 47 ft 4 kts 31°
2026-05-07 10:21 34.78834 135.44201 47 ft 3 kts 31°
2026-05-07 10:21 34.78810 135.44184 49 ft 4 kts 31°
2026-05-07 10:22 34.78791 135.44170 47 ft 4 kts 33°
2026-05-07 10:22 34.78773 135.44149 47 ft 4 kts 72°
2026-05-07 10:22 34.78772 135.44118 47 ft 4 kts 108°
2026-05-07 10:22 34.78775 135.44108 47 ft 0 kts 109°
2026-05-07 10:25 34.78775 135.44109 55 ft 1 kts 109°
2026-05-07 10:26 34.78766 135.44123 50 ft 4 kts 131°
2026-05-07 10:26 34.78735 135.44148 50 ft 7 kts 153°
2026-05-07 10:26 34.78682 135.44198 49 ft 12 kts 134°
2026-05-07 10:26 34.78613 135.44283 48 ft 16 kts 135°
2026-05-07 10:27 34.78504 135.44334 51 ft 18 kts 180°
2026-05-07 10:27 34.78371 135.44333 52 ft 20 kts 181°
2026-05-07 10:27 34.78227 135.44337 51 ft 22 kts 178°
2026-05-07 10:27 34.78127 135.44392 49 ft 17 kts 132°
2026-05-07 10:28 34.78039 135.44501 49 ft 19 kts 136°
2026-05-07 10:28 34.77940 135.44621 49 ft 21 kts 135°
2026-05-07 10:28 34.77833 135.44750 51 ft 22 kts 135°
2026-05-07 10:28 34.77744 135.44858 50 ft 14 kts 135°
2026-05-07 10:29 34.77658 135.44931 49 ft 16 kts 154°
2026-05-07 10:29 34.77548 135.44994 52 ft 16 kts 154°
2026-05-07 10:29 34.77462 135.45010 53 ft 12 kts 202°
2026-05-07 10:30 34.77457 135.44896 51 ft 8 kts 313°
2026-05-07 10:30 34.77464 135.44888 50 ft 0 kts 317°
2026-05-07 10:30 34.77595 135.44731 51 ft 71 kts 315°
2026-05-07 10:31 34.78172 135.44032 61 ft 159 kts 314°
2026-05-07 10:31 34.79033 135.43018 913 ft 180 kts 312°
2026-05-07 10:31 34.79522 135.42140 1414 ft 200 kts 292°
2026-05-07 10:31 34.79680 135.40380 1855 ft 223 kts 257°
2026-05-07 10:32 34.78952 135.38599 1912 ft 251 kts 225°
2026-05-07 10:32 34.76873 135.37454 2875 ft 252 kts 186°
2026-05-07 10:32 34.75669 135.37588 3182 ft 266 kts 168°
2026-05-07 10:32 34.73852 135.38295 3588 ft 275 kts 159°
2026-05-07 10:33 34.72278 135.39598 4165 ft 285 kts 135°
2026-05-07 10:33 34.71261 135.41627 5042 ft 278 kts 109°
2026-05-07 10:33 34.71021 135.43911 5979 ft 272 kts 85°
2026-05-07 10:33 34.71458 135.46179 6410 ft 284 kts 71°
2026-05-07 10:34 34.72244 135.48424 6859 ft 291 kts 65°
2026-05-07 10:34 34.73147 135.50636 7468 ft 292 kts 63°
2026-05-07 10:34 34.74084 135.52837 8008 ft 295 kts 62°
2026-05-07 10:34 34.75067 135.55058 8456 ft 302 kts 60°
2026-05-07 10:35 34.76122 135.57300 8913 ft 307 kts 60°
2026-05-07 10:35 34.77155 135.59584 9468 ft 309 kts 61°
2026-05-07 10:35 34.78149 135.61895 10042 ft 309 kts 66°
2026-05-07 10:35 34.78826 135.64399 10401 ft 315 kts 80°
2026-05-07 10:36 34.79055 135.67072 10774 ft 320 kts 90°
2026-05-07 10:36 34.78998 135.69750 11176 ft 324 kts 95°
2026-05-07 10:36 34.78826 135.72528 11376 ft 335 kts 96°
2026-05-07 10:36 34.78629 135.75396 11503 ft 346 kts 96°
2026-05-07 10:37 34.78422 135.78372 11634 ft 358 kts 96°
2026-05-07 10:37 34.78210 135.81435 11742 ft 366 kts 96°
2026-05-07 10:37 34.77995 135.84552 11866 ft 373 kts 96°
2026-05-07 10:37 34.77780 135.87717 11988 ft 378 kts 96°
2026-05-07 10:38 34.77565 135.90920 12112 ft 382 kts 96°
2026-05-07 10:38 34.77349 135.94168 12231 ft 386 kts 96°
2026-05-07 10:38 34.77133 135.97438 12356 ft 390 kts 96°
2026-05-07 10:38 34.76932 136.00739 12488 ft 396 kts 94°
2026-05-07 10:39 34.76939 136.04096 12601 ft 406 kts 88°
2026-05-07 10:39 34.77188 136.07548 12739 ft 413 kts 85°
2026-05-07 10:39 34.77484 136.11031 12925 ft 416 kts 85°
2026-05-07 10:39 34.77727 136.14551 13194 ft 417 kts 86°
2026-05-07 10:40 34.77931 136.18064 13552 ft 416 kts 87°
2026-05-07 10:40 34.78142 136.21574 13831 ft 417 kts 86°
2026-05-07 10:40 34.78379 136.25102 13958 ft 421 kts 86°
2026-05-07 10:40 34.78636 136.28684 13991 ft 428 kts 85°
2026-05-07 10:41 34.78900 136.32310 14098 ft 432 kts 85°
2026-05-07 10:41 34.79160 136.35943 14382 ft 430 kts 86°
2026-05-07 10:41 34.79412 136.39515 14784 ft 425 kts 86°
2026-05-07 10:41 34.79665 136.43105 15253 ft 419 kts 86°
2026-05-07 10:42 34.79915 136.46651 15384 ft 423 kts 86°
2026-05-07 10:42 34.80166 136.50246 15391 ft 430 kts 86°
2026-05-07 10:42 34.80421 136.53919 15490 ft 444 kts 86°
2026-05-07 10:42 34.80683 136.57693 16059 ft 447 kts 86°
2026-05-07 10:43 34.80944 136.61437 17056 ft 440 kts 85°
2026-05-07 10:43 34.81199 136.65101 18158 ft 431 kts 85°
2026-05-07 10:43 34.81446 136.68695 18731 ft 435 kts 86°
2026-05-07 10:43 34.81700 136.72430 18936 ft 449 kts 86°
2026-05-07 10:44 34.81947 136.76100 19111 ft 461 kts 86°
2026-05-07 10:44 34.82211 136.80002 19563 ft 465 kts 86°
2026-05-07 10:44 34.82478 136.83939 20047 ft 468 kts 86°
2026-05-07 10:44 34.82746 136.87911 20518 ft 472 kts 86°
2026-05-07 10:45 34.82987 136.91898 21003 ft 474 kts 89°
2026-05-07 10:45 34.82887 136.95921 21486 ft 475 kts 97°
2026-05-07 10:45 34.82428 136.99898 22013 ft 476 kts 101°
2026-05-07 10:45 34.81924 137.03883 22520 ft 477 kts 99°
2026-05-07 10:46 34.81508 137.07885 23031 ft 471 kts 98°
2026-05-07 10:46 34.81156 137.11796 23552 ft 457 kts 98°
2026-05-07 10:46 34.80800 137.15585 23993 ft 444 kts 99°
2026-05-07 10:46 34.80415 137.19261 24447 ft 432 kts 99°
2026-05-07 10:47 34.80020 137.22820 24684 ft 429 kts 100°
2026-05-07 10:47 34.79612 137.26425 24691 ft 431 kts 99°
2026-05-07 10:47 34.79203 137.30051 24611 ft 436 kts 99°
2026-05-07 10:47 34.78790 137.33734 24471 ft 444 kts 99°
2026-05-07 10:48 34.78360 137.37549 24612 ft 465 kts 99°
2026-05-07 10:48 34.77915 137.41483 25289 ft 472 kts 99°
2026-05-07 10:48 34.77474 137.45410 26500 ft 463 kts 99°
2026-05-07 10:48 34.77043 137.49260 27731 ft 459 kts 100°
2026-05-07 10:49 34.76617 137.53034 27759 ft 443 kts 100°
2026-05-07 10:49 34.76194 137.56743 27613 ft 444 kts 100°
2026-05-07 10:49 34.75757 137.60502 27526 ft 456 kts 100°
2026-05-07 10:49 34.75296 137.64435 27408 ft 483 kts 100°
2026-05-07 10:50 34.74825 137.68578 27206 ft 502 kts 99°
2026-05-07 10:50 34.74397 137.72816 27039 ft 506 kts 98°
2026-05-07 10:50 34.73997 137.77054 26955 ft 505 kts 98°
2026-05-07 10:50 34.73598 137.81292 26951 ft 504 kts 98°
2026-05-07 10:51 34.73191 137.85530 26947 ft 505 kts 98°
2026-05-07 10:51 34.72781 137.89767 26940 ft 505 kts 98°
2026-05-07 10:51 34.72371 137.94009 26941 ft 505 kts 98°
2026-05-07 10:51 34.71964 137.98241 26941 ft 505 kts 98°
2026-05-07 10:52 34.71625 138.02441 26934 ft 505 kts 95°
2026-05-07 10:52 34.71540 138.06715 26939 ft 506 kts 91°
2026-05-07 10:52 34.71598 138.11006 26943 ft 506 kts 90°
2026-05-07 10:52 34.71641 138.15290 26933 ft 506 kts 91°
2026-05-07 10:53 34.71635 138.19570 26933 ft 506 kts 92°
2026-05-07 10:53 34.71611 138.23847 26818 ft 508 kts 92°
2026-05-07 10:53 34.71601 138.28137 26471 ft 506 kts 91°
2026-05-07 10:53 34.71610 138.32400 26088 ft 502 kts 91°